FW3855 Weather Reports


time (UTC)temp
C
wind
direction
speed
KPH
gust
KPH
rain 1hr
cm
rain 24hr
cm
rain mn
cm
humidity
%
barometer
mb
20260905000433 30 139 14.5 37.0 0.00 0.00 0.00 10 1016.2
20260904235927 30 223 16.1 33.8 0.00 0.00 0.00 10 1016.4
20260904235422 30 203 11.3 33.8 0.00 0.00 0.00 11 1016.4
20260904234915 30 203 9.7 20.9 0.00 0.00 0.00 12 1016.4
20260904233904 30 72 8.0 20.9 0.00 0.00 0.00 13 1016.1
20260904233357 30 228 8.0 22.5 0.00 0.00 0.00 14 1016.1
20260904232852 30 237 9.7 22.5 0.00 0.00 0.00 16 1016.1
20260904232346 30 167 11.3 38.6 0.00 0.00 0.00 15 1016.4
20260904231839 30 131 11.3 38.6 0.00 0.00 0.00 14 1016.5
20260904231334 30 192 8.0 19.3 0.00 0.00 0.00 13 1016.4
20260904230827 30 240 8.0 25.7 0.00 0.00 0.00 14 1016.2
20260904230321 30 82 9.7 25.7 0.00 0.00 0.00 14 1016.4
20260904225815 30 210 12.9 27.4 0.00 0.00 0.00 15 1016.5
20260904225309 30 204 14.5 33.8 0.00 0.00 0.00 14 1016.5
20260904224809 30 176 14.5 33.8 0.00 0.00 0.00 12 1016.6
20260904224308 30 203 12.9 38.6 0.00 0.00 0.00 12 1016.6
20260904223809 30 286 11.3 38.6 0.00 0.00 0.00 11 1016.5
20260904223311 30 212 11.3 32.2 0.00 0.00 0.00 11 1016.5
20260904222306 30 127 9.7 20.9 0.00 0.00 0.00 12 1016.5
20260904221806 31 319 8.0 25.7 0.00 0.00 0.00 13 1016.6
20260904221304 30 187 9.7 29.0 0.00 0.00 0.00 13 1016.7
20260904220805 30 167 12.9 30.6 0.00 0.00 0.00 17 1016.7
20260904220305 30 149 12.9 41.8 0.00 0.00 0.00 17 1016.6
20260904215803 29 203 12.9 41.8 0.00 0.00 0.00 17 1016.5
20260904215305 30 188 12.9 29.0 0.00 0.00 0.00 16 1016.7
20260904214802 30 202 14.5 35.4 0.00 0.00 0.00 16 1016.8
20260904214300 30 179 12.9 35.4 0.00 0.00 0.00 15 1016.8
20260904213805 30 173 12.9 30.6 0.00 0.00 0.00 14 1016.8
20260904213300 30 68 9.7 30.6 0.00 0.00 0.00 15 1016.8
20260904212752 30 181 11.3 35.4 0.00 0.00 0.00 15 1016.8
20260904212253 30 185 12.9 35.4 0.00 0.00 0.00 16 1016.8
20260904211752 30 115 11.3 22.5 0.00 0.00 0.00 16 1016.8
20260904211251 30 193 14.5 35.4 0.00 0.00 0.00 16 1016.9
20260904210750 30 148 14.5 35.4 0.00 0.00 0.00 16 1017.0
20260904210252 30 196 11.3 32.2 0.00 0.00 0.00 15 1017.2
20260904205753 30 276 9.7 32.2 0.00 0.00 0.00 17 1017.2
20260904204751 30 207 11.3 30.6 0.00 0.00 0.00 17 1016.9
20260904202751 30 165 9.7 32.2 0.00 0.00 0.00 18 1017.5
20260904202251 30 184 8.0 29.0 0.00 0.00 0.00 18 1017.4
20260904201252 29 74 11.3 46.7 0.00 0.00 0.00 19 1017.4
20260904200754 29 241 9.7 29.0 0.00 0.00 0.00 22 1017.4
20260904194752 28 179 11.3 48.3 0.00 0.00 0.00 25 1017.6
20260904193752 28 104 8.0 24.1 0.00 0.00 0.00 26 1017.6
20260904193251 28 217 11.3 33.8 0.00 0.00 0.00 28 1017.7
20260904192750 28 98 12.9 38.6 0.00 0.00 0.00 28 1017.7
20260904192252 28 210 12.9 38.6 0.00 0.00 0.00 27 1017.7
20260904191253 28 151 11.3 33.8 0.00 0.00 0.00 28 1018.0
20260904190748 27 281 9.7 29.0 0.00 0.00 0.00 28 1017.8
20260904190247 28 352 11.3 27.4 0.00 0.00 0.00 30 1018.0
20260904185748 27 149 14.5 38.6 0.00 0.00 0.00 30 1018.0
20260904185247 27 139 12.9 38.6 0.00 0.00 0.00 32 1018.2
20260904184745 27 195 11.3 38.6 0.00 0.00 0.00 33 1018.1
20260904184245 27 214 11.3 27.4 0.00 0.00 0.00 33 1018.2
20260904183745 27 103 12.9 27.4 0.00 0.00 0.00 30 1018.2
20260904183245 27 96 14.5 33.8 0.00 0.00 0.00 32 1018.2
20260904182744 27 194 11.3 33.8 0.00 0.00 0.00 31 1018.2
20260904182241 27 102 9.7 30.6 0.00 0.00 0.00 31 1018.3
20260904181240 26 195 12.9 35.4 0.00 0.00 0.00 33 1018.2
20260904180738 26 141 14.5 35.4 0.00 0.00 0.00 34 1018.3
20260904180237 26 63 11.3 30.6 0.00 0.00 0.00 33 1018.3
20260904175236 26 187 8.0 19.3 0.00 0.00 0.00 34 1018.3
20260904174738 26 191 9.7 32.2 0.00 0.00 0.00 34 1018.3
20260904174236 26 83 9.7 32.2 0.00 0.00 0.00 36 1018.3
20260904173738 26 142 8.0 29.0 0.00 0.00 0.00 36 1018.4
20260904173235 26 158 11.3 35.4 0.00 0.00 0.00 37 1018.4
20260904172234 25 123 14.5 46.7 0.00 0.00 0.00 37 1018.4
20260904171734 25 123 14.5 46.7 0.00 0.00 0.00 37 1018.4
20260904170735 25 103 14.5 37.0 0.00 0.00 0.00 40 1018.3
20260904170229 25 153 12.9 37.0 0.00 0.00 0.00 39 1018.2
20260904165723 25 169 12.9 29.0 0.00 0.00 0.00 39 1018.1
20260904165217 25 131 9.7 30.6 0.00 0.00 0.00 39 1018.1
20260904164711 25 232 9.7 35.4 0.00 0.00 0.00 40 1018.2
20260904164205 25 79 9.7 35.4 0.00 0.00 0.00 40 1018.1
20260904163700 25 233 11.3 30.6 0.00 0.00 0.00 40 1018.1
20260904163153 24 141 11.3 35.4 0.00 0.00 0.00 40 1018.1
20260904162648 25 165 9.7 35.4 0.00 0.00 0.00 39 1018.2
20260904162140 24 255 11.3 29.0 0.00 0.00 0.00 38 1018.0
20260904161635 24 101 9.7 29.0 0.00 0.00 0.00 39 1018.1
20260904161129 24 119 9.7 29.0 0.00 0.00 0.00 40 1018.1
20260904160623 23 266 11.3 29.0 0.00 0.00 0.00 41 1018.1
20260904160118 23 148 11.3 29.0 0.00 0.00 0.00 41 1017.8
20260904155611 23 125 12.9 29.0 0.00 0.00 0.00 41 1018.0
20260904155105 23 169 12.9 35.4 0.00 0.00 0.00 40 1017.8
20260904154559 23 183 9.7 35.4 0.00 0.00 0.00 39 1017.8
20260904154054 23 195 9.7 32.2 0.00 0.00 0.00 37 1017.8
20260904153041 23 160 9.7 25.7 0.00 0.00 0.00 36 1017.7
20260904152535 23 98 9.7 24.1 0.00 0.00 0.00 35 1017.7
20260904152030 23 148 8.0 25.7 0.00 0.00 0.00 34 1017.7
20260904151523 23 139 8.0 25.7 0.00 0.00 0.00 32 1017.7
20260904151016 23 121 9.7 40.2 0.00 0.00 0.00 31 1017.7
20260904150511 23 181 9.7 40.2 0.00 0.00 0.00 30 1017.6
20260904150005 23 181 6.4 27.4 0.00 0.00 0.00 29 1017.6
20260904145459 23 191 4.8 27.4 0.00 0.00 0.00 28 1017.6
20260904144953 23 224 4.8 22.5 0.00 0.00 0.00 27 1017.5
20260904144447 22 77 6.4 22.5 0.00 0.00 0.00 26 1017.5
20260904143941 22 262 6.4 16.1 0.00 0.00 0.00 24 1017.5
20260904143435 22 167 4.8 16.1 0.00 0.00 0.00 24 1017.4
20260904142929 22 268 3.2 16.1 0.00 0.00 0.00 21 1017.4
20260904142429 22 325 3.2 16.1 0.00 0.00 0.00 21 1017.4
20260904141926 22 231 4.8 17.7 0.00 0.00 0.00 18 1017.3
20260904141425 22 215 3.2 17.7 0.00 0.00 0.00 19 1017.4
20260904140923 22 300 3.2 17.7 0.00 0.00 0.00 18 1017.3
20260904135920 21 252 4.8 19.3 0.00 0.00 0.00 19 1017.0
20260904134913 -17 0.0 0.0 0.00 0.00 0.00 1016.7
20260904134412 -17 0.0 0.0 0.00 0.00 0.00 1016.8
20260904133909 -17 0.0 0.0 0.00 0.00 0.00 1016.7
20260904133320 -17 0.0 0.0 0.00 0.00 0.00 1016.7
20260904132819 -17 0.0 0.0 0.00 0.00 0.00 1016.7
20260904132212 -17 0.0 0.0 0.00 0.00 0.00 1016.7
20260904131209 -17 0.0 0.0 0.00 0.00 0.00 1016.6
20260904130710 -17 0.0 0.0 0.00 0.00 0.00 1016.6
20260904124515 -17 0.0 0.0 0.00 0.00 0.00 1016.4
20260904123922 -17 0.0 0.0 0.00 0.00 0.00 1016.4
20260904123412 -17 0.0 0.0 0.00 0.00 0.00 1016.4
20260904122412 -17 186 4.8 14.5 0.00 0.00 0.00 1016.4
20260904121813 -17 186 4.8 8.0 0.00 0.00 0.00 1016.2
20260904121250 21 186 4.8 14.5 0.00 0.00 0.00 7 1016.4
20260904120746 21 120 4.8 14.5 0.00 0.00 0.00 7 1016.4
20260904120246 21 126 4.8 14.5 0.00 0.00 0.00 7 1016.4
20260904115746 21 142 4.8 11.3 0.00 0.00 0.00 7 1016.4
20260904115245 21 124 6.4 14.5 0.00 0.00 0.00 7 1016.4
20260904114743 21 152 4.8 14.5 0.00 0.00 0.00 7 1016.4
20260904114242 21 158 4.8 17.7 0.00 0.00 0.00 7 1016.4
20260904113742 21 212 4.8 17.7 0.00 0.00 0.00 7 1016.4
20260904112741 21 96 6.4 16.1 0.00 0.00 0.00 7 1016.4
20260904111739 21 224 6.4 19.3 0.00 0.00 0.00 7 1016.4
20260904111241 21 148 4.8 19.3 0.00 0.00 0.00 7 1016.4
20260904110240 21 167 3.2 11.3 0.00 0.00 0.00 8 1016.2
20260904105740 21 130 4.8 11.3 0.00 0.00 0.00 8 1016.1
20260904104742 21 203 6.4 12.9 0.00 0.00 0.00 9 1016.1
20260904104235 21 169 6.4 12.9 0.00 0.00 0.00 9 1016.0
20260904103735 21 181 6.4 14.5 0.00 0.00 0.00 9 1016.1
20260904103236 21 192 6.4 14.5 0.00 0.00 0.00 9 1016.1
20260904102736 21 162 4.8 14.5 0.00 0.00 0.00 9 1016.1
20260904102237 21 127 8.0 17.7 0.00 0.00 0.00 10 1016.0
20260904101736 21 131 9.7 17.7 0.00 0.00 0.00 9 1015.9
20260904101236 21 140 8.0 22.5 0.00 0.00 0.00 10 1015.9
20260904100736 21 179 6.4 22.5 0.00 0.00 0.00 10 1015.9
20260904095737 21 169 4.8 16.1 0.00 0.00 0.00 11 1015.9
20260904095237 21 157 6.4 16.1 0.00 0.00 0.00 11 1015.8
20260904094740 21 103 8.0 17.7 0.00 0.00 0.00 12 1015.8
20260904093737 21 119 8.0 20.9 0.00 0.00 0.00 11 1015.8
20260904092739 22 98 8.0 29.0 0.00 0.00 0.00 16 1015.7
20260904092238 22 203 6.4 12.9 0.00 0.00 0.00 14 1015.7
20260904091739 21 103 6.4 16.1 0.00 0.00 0.00 16 1015.7
20260904091232 21 185 4.8 16.1 0.00 0.00 0.00 15 1015.7
20260904090728 21 110 4.8 11.3 0.00 0.00 0.00 12 1015.8
20260904090222 21 216 3.2 9.7 0.00 0.00 0.00 11 1015.8
20260904085715 21 157 3.2 9.7 0.00 0.00 0.00 11 1015.9
20260904085209 21 124 4.8 12.9 0.00 0.00 0.00 11 1015.8
20260904084703 21 114 4.8 19.3 0.00 0.00 0.00 10 1015.8
20260904084157 21 170 3.2 19.3 0.00 0.00 0.00 10 1015.8
20260904083651 21 96 3.2 12.9 0.00 0.00 0.00 10 1015.8
20260904083145 21 89 4.8 19.3 0.00 0.00 0.00 10 1015.8
20260904082639 21 208 8.0 24.1 0.00 0.00 0.00 10 1015.8
20260904082133 21 127 8.0 24.1 0.00 0.00 0.00 10 1015.8
20260904081627 21 107 8.0 17.7 0.00 0.00 0.00 11 1015.9
20260904080106 21 164 8.0 19.3 0.00 0.00 0.00 12 1016.0
20260904075605 21 177 8.0 24.1 0.00 0.00 0.00 12 1016.0
20260904075050 22 158 9.7 24.1 0.00 0.00 0.00 12 1016.0
20260904074544 22 110 9.7 24.1 0.00 0.00 0.00 13 1016.0
20260904074038 22 155 9.7 19.3 0.00 0.00 0.00 13 1016.1
20260904073532 22 222 9.7 22.5 0.00 0.00 0.00 13 1016.1
20260904073026 22 157 9.7 22.5 0.00 0.00 0.00 13 1016.0
20260904072521 22 115 8.0 22.5 0.00 0.00 0.00 14 1016.0
20260904072016 22 165 8.0 25.7 0.00 0.00 0.00 14 1015.9
20260904071515 22 195 6.4 25.7 0.00 0.00 0.00 15 1016.0
20260904071013 22 188 6.4 17.7 0.00 0.00 0.00 15 1015.9
20260904070514 22 212 8.0 17.7 0.00 0.00 0.00 16 1015.9
20260904070014 22 205 8.0 22.5 0.00 0.00 0.00 16 1015.9
20260904065509 22 153 6.4 22.5 0.00 0.00 0.00 17 1016.0
20260904065010 22 204 4.8 19.3 0.00 0.00 0.00 17 1015.9
20260904064509 22 91 6.4 17.7 0.00 0.00 0.00 18 1015.9
20260904063509 22 115 6.4 16.1 0.00 0.00 0.00 18 1015.9
20260904062509 22 98 6.4 17.7 0.00 0.00 0.00 19 1015.9
20260904062011 22 105 6.4 25.7 0.00 0.00 0.00 19 1015.8
20260904061509 22 89 8.0 25.7 0.00 0.00 0.00 19 1015.8
20260904061009 22 123 6.4 20.9 0.00 0.00 0.00 19 1015.7
20260904060509 22 145 6.4 20.9 0.00 0.00 0.00 20 1015.7
20260904060013 22 105 4.8 19.3 0.00 0.00 0.00 21 1015.7
20260904055507 22 136 4.8 14.5 0.00 0.00 0.00 23 1015.7
20260904055001 22 104 4.8 16.1 0.00 0.00 0.00 23 1015.7
20260904054455 22 172 3.2 16.1 0.00 0.00 0.00 24 1015.7
20260904053949 23 214 4.8 9.7 0.00 0.00 0.00 25 1015.7
20260904053444 23 210 6.4 16.1 0.00 0.00 0.00 26 1015.8
20260904051419 23 166 4.8 14.5 0.00 0.00 0.00 27 1015.8
20260904050913 23 205 4.8 14.5 0.00 0.00 0.00 27 1015.7
20260904050407 23 227 4.8 19.3 0.00 0.00 0.00 26 1015.8
20260904045355 23 203 3.2 14.5 0.00 0.00 0.00 26 1015.9
20260904044849 23 187 4.8 11.3 0.00 0.00 0.00 26 1015.9
20260904044345 23 152 3.2 14.5 0.00 0.00 0.00 26 1015.9
20260904043331 24 231 6.4 14.5 0.00 0.00 0.00 26 1015.9
20260904041307 24 165 6.4 22.5 0.00 0.00 0.00 30 1015.8
20260904040801 24 191 8.0 22.5 0.00 0.00 0.00 30 1015.8
20260904040255 24 174 6.4 17.7 0.00 0.00 0.00 29 1015.8
20260904035750 24 146 4.8 17.7 0.00 0.00 0.00 28 1015.8
20260904034227 24 162 6.4 17.7 0.00 0.00 0.00 26 1015.6
20260904033721 24 239 4.8 17.7 0.00 0.00 0.00 25 1015.6
20260904033218 24 197 4.8 17.7 0.00 0.00 0.00 25 1015.6
20260904032218 24 266 4.8 17.7 0.00 0.00 0.00 24 1015.4
20260904031717 24 204 4.8 12.9 0.00 0.00 0.00 23 1015.3
20260904031219 25 207 4.8 12.9 0.00 0.00 0.00 23 1015.3
20260904030716 25 143 4.8 12.9 0.00 0.00 0.00 23 1015.3
20260904030218 25 224 6.4 14.5 0.00 0.00 0.00 22 1015.3
20260904025717 25 160 3.2 14.5 0.00 0.00 0.00 22 1015.3
20260904025219 25 232 3.2 9.7 0.00 0.00 0.00 22 1015.3
20260904024215 25 206 4.8 12.9 0.00 0.00 0.00 21 1015.2
20260904023714 25 179 6.4 25.7 0.00 0.00 0.00 21 1015.2
20260904023213 25 193 6.4 25.7 0.00 0.00 0.00 20 1015.2
20260904022713 25 195 4.8 14.5 0.00 0.00 0.00 20 1015.2
20260904021714 25 209 6.4 16.1 0.00 0.00 0.00 19 1015.1
20260904021214 25 173 6.4 25.7 0.00 0.00 0.00 18 1015.1
20260904020708 25 146 6.4 25.7 0.00 0.00 0.00 18 1015.1
20260904020202 25 210 6.4 19.3 0.00 0.00 0.00 18 1015.2
20260904015702 26 174 6.4 19.3 0.00 0.00 0.00 18 1015.2
20260904014202 26 205 4.8 12.9 0.00 0.00 0.00 16 1015.2
20260904013702 26 180 9.7 29.0 0.00 0.00 0.00 16 1015.4
20260904012701 27 203 11.3 32.2 0.00 0.00 0.00 14 1015.2
20260904012158 27 145 8.0 24.1 0.00 0.00 0.00 14 1015.3
20260904011700 28 126 4.8 19.3 0.00 0.00 0.00 15 1015.2
20260904010658 28 217 6.4 19.3 0.00 0.00 0.00 14 1015.3
20260904010159 28 215 8.0 16.1 0.00 0.00 0.00 14 1015.3
20260904005656 28 268 8.0 25.7 0.00 0.00 0.00 14 1015.3
20260904005158 28 237 6.4 25.7 0.00 0.00 0.00 13 1015.2
20260904004655 28 240 6.4 22.5 0.00 0.00 0.00 14 1015.2
20260904004159 28 229 8.0 22.5 0.00 0.00 0.00 14 1015.3
20260904003656 29 200 9.7 20.9 0.00 0.00 0.00 14 1015.3
20260904003155 29 164 8.0 20.9 0.00 0.00 0.00 13 1015.2
20260904002656 29 218 8.0 19.3 0.00 0.00 0.00 14 1015.3
20260904002156 29 224 8.0 25.7 0.00 0.00 0.00 14 1015.2
20260904001655 29 200 8.0 25.7 0.00 0.00 0.00 13 1015.2
20260904001157 29 268 9.7 22.5 0.00 0.00 0.00 13 1015.2